FENGYUN 1C DEB

Satellite information

Favourite Embed

Satellite Type and Status

DEBRISIN ORBIT

Key statistics

Satellite FENGYUN 1C DEB at a glance.

Uptime

9500

Days in orbit

Revolutions

≈ 13.4

Per day

Orbit

SSO

Sun Synchronous Orbit

Inclination

97.8

Latest

Satellite identification and parameters

Extended collection of information and parameters for FENGYUN 1C DEB.

Object identification

Identified? True

Debris? True

Object name: FENGYUN 1C DEB

International designator: 1999-025CMG

Object number (NORAD): 31931

Object ID (CCSDS): 31931

Country: PEOPLES REPUBLIC OF CHINA (PRC)

Current information (Y/N): Y

RCS size: SMALL

Orbital parameters

Period: 107.289 minutes

Inclination: 97.7895 deg

SMA: 7479.352 km

Apoapsis: 1420.563 km

Periapsis: 781.87 km

RAAN: 131.045 deg

Eccentricy: 0.0426971

Argument of periapsis: 105.7389 deg

Mean anomaly: 259.1258 deg

Mean motion: 13.42167826 rev/day

Mean motion (dot): 0.00000825 rev/day2

B* drag term: 0.00088036 1/REarth

Two-line elements (TLE)

Creation date: May 12, 2025, 10:56 p.m.

Reference frame: TEME

Reference center: EARTH

Epoch: May 12, 2025, 5:57 p.m. UTC

TLE line 0: 0 FENGYUN 1C DEB

TLE line 1: 1 31931U 99025CMG 25132.74826393 .00000825 00000-0 88036-3 0 9990

TLE line 2: 2 31931 97.7895 131.0450 0426971 105.7389 259.1258 13.42167826878656

Live tracking on map

Real-time ground track for satellite FENGYUN 1C DEB.

In-orbit conjunctions

A list of the most updated potential collisions computed for object FENGYUN 1C DEB.

Target Orbit TCA Probability of collision Miss distance Type
DTUSAT SSO 2025-02-24 06:32:12 0.0001308501 840.0 (m) PAYLOAD
SL-16 R/B LEO 2025-01-04 18:12:49 0.0001087576 718.0 (m) ROCKET BODY

Associated space launch

Chinese polar orbiting meteorological satellite

FENGYUN 1C DEB was lifted into orbit during the mission ‘Long March 4B | Feng Yun 1C’, on board a Long March 4B space rocket.

The launch took place on May 10, 1999, 1:33 a.m. from Launch Complex 7.

For more information about the launch, click the button.

Launch to space Long March 4B | Feng Yun 1C
Long March 4B | Feng Yun 1C

Agency: N/A

Status: Launch Successful

Launch date: May 10, 1999, 1:33 a.m. UTC

Rocket: Long March 4B

Launch pad: Launch Complex 7

Location: Taiyuan Satellite Launch Center, People's Republic of China

...

Latest news about this satellite

There are no fresh news available about this satellite. Check back as we update our databases every day.


Newsletter sign-up

Weekly statistics, charts and insights to help you stay on top of the space industry.